This is the latest recevied weather packets stored in our database for station/object EA1GHG-11. If no packets are shown the sender has not sent any weather packets the latest 10 day(s).
| Time | Temp. | Humidity | Pressure | Rain* | Wind** | Luminosity | Snow |
|---|---|---|---|---|---|---|---|
| 1778117822 | 7.78° C | 100% | 1015.4 hPa | - | - | - | - |
| 1778116322 | 7.78° C | 100% | 1015.5 hPa | - | - | - | - |
| 1778114822 | 7.78° C | 100% | 1015.7 hPa | - | - | - | - |
| 1778113322 | 8.33° C | 100% | 1015.8 hPa | - | - | - | - |
| 1778112724 | 7.78° C | 100% | 1015.9 hPa | - | - | - | - |
| 1778111224 | 8.33° C | 100% | 1016 hPa | - | - | - | - |
| 1778109724 | 9.44° C | 100% | 1016.1 hPa | - | - | - | - |
| 1778108224 | 10° C | 100% | 1016.1 hPa | - | - | - | - |
| 1778106724 | 10° C | 100% | 1016.1 hPa | - | - | - | - |
| 1778105224 | 10.56° C | 100% | 1016.1 hPa | - | - | - | - |
| 1778103724 | 10.56° C | 100% | 1016.4 hPa | - | - | - | - |
| 1778102223 | 11.11° C | 100% | 1016.4 hPa | - | - | - | - |
| 1778100722 | 11.11° C | 100% | 1016.4 hPa | - | - | - | - |
| 1778099222 | 11.11° C | 100% | 1016.2 hPa | - | - | - | - |
| 1778097722 | 11.67° C | 100% | 1015.8 hPa | - | - | - | - |
| 1778096222 | 12.22° C | 100% | 1015.9 hPa | - | - | - | - |
| 1778094722 | 12.78° C | 100% | 1015.8 hPa | - | - | - | - |
| 1778093222 | 13.33° C | 100% | 1015.5 hPa | - | - | - | - |
| 1778091721 | 13.89° C | 100% | 1015.6 hPa | - | - | - | - |
| 1778091122 | 13.33° C | 100% | 1015.5 hPa | - | - | - | - |
| 1778089622 | 13.89° C | 100% | 1015.5 hPa | - | - | - | - |
| 1778088122 | 13.89° C | 100% | 1015.6 hPa | - | - | - | - |
| 1778086622 | 14.44° C | 100% | 1015.7 hPa | - | - | - | - |
| 1778085122 | 13.89° C | 100% | 1015.9 hPa | - | - | - | - |
| 1778083622 | 13.89° C | 100% | 1015.9 hPa | - | - | - | - |
* Rain since midnight (hover to see other rain measurements)
** Current wind speed in m/s (hover to see current wind gust speed)